When you browse on this site, cookies collect data to enhance your experience and personalize the content and advertising you see.
Visit our Privacy Policy to learn more. By continuing to use the site, you agree to this use of cookies and data.
  • Em Portugal
  • Lista de países
  • Para 7 dias
  • Temperatura da água
  • Mapas de satélite
  • Mapa do tempo
  • Widgets de tempo
  • user-avatar
    Iniciar Sessão

    Previsão horária em Blyuev

    Hoje, 24 Abril, Quarta-feira

    Tempo Temperatura Precipitação Vento Pressão Humidade
    00:00 +12°C° 0 mm 1 m/s 757 mmHg 56%
    01:00 +11°C° 0 mm 1 m/s 757 mmHg 58%
    02:00 +10°C° 0 mm 0 m/s 757 mmHg 54%
    03:00 +9°C° 0 mm 0 m/s 757 mmHg 55%
    04:00 +9°C° 0 mm 0 m/s 757 mmHg 56%
    05:00 +9°C° 0 mm 0 m/s 757 mmHg 57%
    06:00 +12°C° 0 mm 1 m/s 758 mmHg 53%
    07:00 +14°C° 0 mm 1 m/s 758 mmHg 49%
    08:00 +16°C° 0 mm 1 m/s 758 mmHg 45%
    09:00 +17°C° 0 mm 2 m/s 758 mmHg 40%
    10:00 +19°C° 0 mm 2 m/s 758 mmHg 36%
    11:00 +20°C° 0 mm 2 m/s 758 mmHg 31%
    12:00 +21°C° 0 mm 2 m/s 757 mmHg 30%
    13:00 +21°C° 0 mm 2 m/s 757 mmHg 29%
    14:00 +23°C° 0 mm 2 m/s 757 mmHg 27%
    15:00 +21°C° 0 mm 2 m/s 757 mmHg 29%
    16:00 +21°C° 0 mm 2 m/s 756 mmHg 31%
    17:00 +21°C° 0 mm 2 m/s 756 mmHg 32%
    18:00 +19°C° 0 mm 2 m/s 756 mmHg 36%
    19:00 +17°C° 0 mm 2 m/s 756 mmHg 40%
    20:00 +15°C° 0 mm 2 m/s 756 mmHg 44%
    21:00 +14°C° 0 mm 2 m/s 756 mmHg 46%
    22:00 +14°C° 0 mm 2 m/s 756 mmHg 47%
    23:00 +13°C° 0 mm 1 m/s 756 mmHg 48%

    Amanhã, 25 Abril, Quinta-feira

    Tempo Temperatura Precipitação Vento Pressão Humidade
    00:00 +12°C° 0 mm 1 m/s 756 mmHg 49%
    01:00 +12°C° 0 mm 1 m/s 757 mmHg 51%
    02:00 +12°C° 0 mm 1 m/s 757 mmHg 52%
    03:00 +11°C° 0 mm 1 m/s 757 mmHg 53%
    04:00 +11°C° 0 mm 1 m/s 756 mmHg 55%
    05:00 +10°C° 0 mm 1 m/s 756 mmHg 56%
    06:00 +12°C° 0 mm 1 m/s 756 mmHg 52%
    07:00 +15°C° 0 mm 1 m/s 756 mmHg 49%
    08:00 +17°C° 0 mm 2 m/s 756 mmHg 45%
    09:00 +18°C° 0 mm 3 m/s 756 mmHg 41%
    10:00 +19°C° 0 mm 3 m/s 756 mmHg 37%
    11:00 +21°C° 0 mm 4 m/s 756 mmHg 33%
    12:00 +21°C° 0 mm 4 m/s 756 mmHg 32%
    13:00 +22°C° 0 mm 4 m/s 755 mmHg 31%
    14:00 +22°C° 0 mm 5 m/s 755 mmHg 31%
    15:00 +22°C° 0 mm 4 m/s 754 mmHg 32%
    16:00 +21°C° 0 mm 4 m/s 754 mmHg 34%
    17:00 +21°C° 0 mm 3 m/s 754 mmHg 36%
    18:00 +19°C° 0 mm 3 m/s 754 mmHg 41%
    19:00 +17°C° 0 mm 3 m/s 754 mmHg 47%
    20:00 +14°C° 0 mm 3 m/s 753 mmHg 52%
    21:00 +13°C° 0 mm 3 m/s 754 mmHg 54%
    22:00 +13°C° 0 mm 3 m/s 754 mmHg 56%
    23:00 +12°C° 0 mm 3 m/s 754 mmHg 58%

    Depois de amanhã, 26 Abril, Sexta-feira

    Tempo Temperatura Precipitação Vento Pressão Humidade
    00:00 +12°C° 0 mm 2 m/s 753 mmHg 60%
    01:00 +12°C° 0 mm 2 m/s 753 mmHg 62%
    02:00 +10°C° 0 mm 2 m/s 753 mmHg 64%
    03:00 +10°C° 0 mm 2 m/s 753 mmHg 66%
    04:00 +10°C° 0 mm 2 m/s 753 mmHg 68%
    05:00 +9°C° 0 mm 2 m/s 753 mmHg 70%
    06:00 +11°C° 0 mm 3 m/s 753 mmHg 65%
    07:00 +13°C° 0 mm 3 m/s 752 mmHg 61%
    08:00 +15°C° 0 mm 4 m/s 752 mmHg 56%
    09:00 +17°C° 0 mm 4 m/s 752 mmHg 50%
    10:00 +19°C° 0 mm 5 m/s 752 mmHg 44%
    11:00 +21°C° 0 mm 6 m/s 752 mmHg 38%
    12:00 +21°C° 0 mm 6 m/s 751 mmHg 38%
    13:00 +22°C° 0 mm 6 m/s 751 mmHg 37%
    14:00 +22°C° 0 mm 6 m/s 750 mmHg 36%
    15:00 +22°C° 0 mm 5 m/s 750 mmHg 38%
    16:00 +21°C° 0 mm 5 m/s 749 mmHg 40%
    17:00 +21°C° 0 mm 5 m/s 749 mmHg 42%
    18:00 +19°C° 0 mm 4 m/s 749 mmHg 46%
    19:00 +17°C° 0 mm 4 m/s 749 mmHg 51%
    20:00 +16°C° 0 mm 3 m/s 749 mmHg 55%
    21:00 +14°C° 0 mm 3 m/s 749 mmHg 56%
    22:00 +13°C° 0 mm 3 m/s 748 mmHg 56%
    23:00 +12°C° 0 mm 3 m/s 748 mmHg 56%

    27 Abril, Sábado

    Tempo Temperatura Precipitação Vento Pressão Humidade
    00:00 +12°C° 0 mm 3 m/s 748 mmHg 57%
    01:00 +12°C° 0 mm 3 m/s 748 mmHg 58%
    02:00 +11°C° 0 mm 3 m/s 747 mmHg 59%
    03:00 +11°C° 0 mm 4 m/s 747 mmHg 60%
    04:00 +11°C° 0 mm 4 m/s 747 mmHg 61%
    05:00 +11°C° 0 mm 4 m/s 746 mmHg 63%
    06:00 +12°C° 0 mm 4 m/s 746 mmHg 64%
    07:00 +12°C° 0 mm 4 m/s 746 mmHg 65%
    08:00 +13°C° 0 mm 4 m/s 745 mmHg 67%
    09:00 +14°C° 0 mm 4 m/s 745 mmHg 65%
    10:00 +15°C° 0 mm 5 m/s 745 mmHg 63%
    11:00 +16°C° 0 mm 5 m/s 745 mmHg 62%
    12:00 +17°C° 0 mm 5 m/s 744 mmHg 59%
    13:00 +20°C° 0 mm 5 m/s 744 mmHg 57%
    14:00 +21°C° 0 mm 6 m/s 744 mmHg 54%
    15:00 +21°C° 0.1 mm 5 m/s 743 mmHg 56%
    16:00 +21°C° 0.1 mm 5 m/s 743 mmHg 58%
    17:00 +20°C° 0.1 mm 4 m/s 742 mmHg 59%
    18:00 +19°C° 0.5 mm 4 m/s 742 mmHg 67%
    19:00 +17°C° 0.5 mm 3 m/s 742 mmHg 75%
    20:00 +14°C° 0.5 mm 3 m/s 742 mmHg 83%
    21:00 +14°C° 0.3 mm 3 m/s 742 mmHg 86%
    22:00 +15°C° 0.3 mm 2 m/s 741 mmHg 89%
    23:00 +14°C° 0.3 mm 2 m/s 741 mmHg 92%

    28 Abril, Domingo

    Tempo Temperatura Precipitação Vento Pressão Humidade
    00:00 +14°C° 0.1 mm 2 m/s 741 mmHg 93%
    01:00 +14°C° 0.1 mm 2 m/s 741 mmHg 93%
    02:00 +14°C° 0.1 mm 2 m/s 741 mmHg 94%
    03:00 +14°C° 0.4 mm 2 m/s 741 mmHg 94%
    04:00 +14°C° 0.4 mm 2 m/s 741 mmHg 95%
    05:00 +13°C° 0.4 mm 2 m/s 741 mmHg 95%
    06:00 +15°C° 0 mm 2 m/s 741 mmHg 90%
    07:00 +16°C° 0 mm 2 m/s 742 mmHg 85%
    08:00 +17°C° 0 mm 3 m/s 742 mmHg 79%
    09:00 +18°C° 0 mm 3 m/s 742 mmHg 73%
    10:00 +20°C° 0 mm 3 m/s 742 mmHg 66%
    11:00 +21°C° 0 mm 4 m/s 742 mmHg 60%
    12:00 +21°C° 0.4 mm 4 m/s 743 mmHg 59%
    13:00 +22°C° 0.4 mm 5 m/s 743 mmHg 59%
    14:00 +22°C° 0.4 mm 5 m/s 743 mmHg 58%
    15:00 +21°C° 0.3 mm 6 m/s 744 mmHg 60%
    16:00 +20°C° 0.3 mm 6 m/s 744 mmHg 62%
    17:00 +18°C° 0.3 mm 7 m/s 744 mmHg 64%
    18:00 +16°C° 0 mm 6 m/s 745 mmHg 67%
    19:00 +14°C° 0 mm 6 m/s 746 mmHg 70%
    20:00 +11°C° 0 mm 6 m/s 746 mmHg 73%
    21:00 +10°C° 0 mm 6 m/s 747 mmHg 73%
    22:00 +9°C° 0 mm 6 m/s 747 mmHg 72%
    23:00 +8°C° 0 mm 6 m/s 748 mmHg 71%

    29 Abril, Segunda-feira

    Tempo Temperatura Precipitação Vento Pressão Humidade
    00:00 +7°C° 0 mm 6 m/s 748 mmHg 69%
    01:00 +7°C° 0 mm 6 m/s 749 mmHg 67%
    02:00 +5°C° 0 mm 6 m/s 749 mmHg 64%
    03:00 +4°C° 0 mm 6 m/s 750 mmHg 64%
    04:00 +3°C° 0 mm 6 m/s 750 mmHg 64%
    05:00 +3°C° 0 mm 5 m/s 750 mmHg 64%
    06:00 +3°C° 0 mm 6 m/s 751 mmHg 61%
    07:00 +4°C° 0 mm 6 m/s 751 mmHg 58%
    08:00 +5°C° 0 mm 7 m/s 751 mmHg 55%
    09:00 +6°C° 0 mm 7 m/s 751 mmHg 51%
    10:00 +8°C° 0 mm 7 m/s 752 mmHg 47%
    11:00 +9°C° 0 mm 7 m/s 752 mmHg 43%
    12:00 +10°C° 0 mm 6 m/s 752 mmHg 42%
    13:00 +11°C° 0 mm 6 m/s 752 mmHg 42%
    14:00 +11°C° 0 mm 6 m/s 751 mmHg 41%
    15:00 +11°C° 0 mm 6 m/s 751 mmHg 42%
    16:00 +11°C° 0 mm 6 m/s 752 mmHg 44%
    17:00 +10°C° 0 mm 5 m/s 752 mmHg 45%
    18:00 +9°C° 0 mm 5 m/s 752 mmHg 49%
    19:00 +7°C° 0 mm 4 m/s 752 mmHg 53%
    20:00 +6°C° 0 mm 4 m/s 753 mmHg 57%
    21:00 +5°C° 0 mm 4 m/s 753 mmHg 58%
    22:00 +5°C° 0 mm 4 m/s 753 mmHg 59%
    23:00 +4°C° 0 mm 4 m/s 754 mmHg 60%
    Mostrar mais